Weather Roundup
Issued by NWS Corpus Christi, TX

Home | Current Version | Previous Version | Text Only | Print | Product List | Glossary On
Versions: 1 2 3 4 5 6 7 8 9 10 11 12 13 14 15 16 17 18 19 20 21 22 23 24 25 26 27 28 29 30 31 32 33 34 35 36 37 38 39 40 41 42 43 44 45 46 47 48 49 50
000
ASUS44 KCRP 280210
HRRCRP

SOUTH TEXAS REGIONAL WEATHER ROUNDUP
NATIONAL WEATHER SERVICE CORPUS CHRISTI TX
900 PM CDT THU AUG 27 2015


TXZ229>244-280300-
...CORPUS CHRISTI AREA OBSERVATIONS...

CITY           SKY/WX    TMP DP  RH WIND       PRES   REMARKS
CORPUS CHRISTI MOCLDY    82  66  58 S8        29.98R
NAS CORPUS CHR MOCLDY    78  68  71 SE8       29.98S
ROCKPORT       PTCLDY    81  66  60 S5        29.98R
KINGSVILLE NAS MOCLDY    79  69  71 SE6       29.99R
ALICE          PTCLDY    78  67  68 S8        29.98R
FALFURRIAS     CLEAR     80  64  58 SE6       29.99R
$$

...VICTORIA AREA OBSERVATIONS...

CITY           SKY/WX    TMP DP  RH WIND       PRES   REMARKS
VICTORIA       PTCLDY    78  67  68 S6        29.99R
BEEVILLE       FAIR      81  69  67 S8        29.98S
PLEASANTON     NOT AVBL
SAN ANTONIO    PTCLDY    86  58  38 SE9       29.99R
$$

...LAREDO AREA OBSERVATIONS...

CITY           SKY/WX    TMP DP  RH WIND       PRES   REMARKS
LAREDO         CLEAR     90  56  31 SE9       29.98R
COTULLA        PTCLDY    88  56  33 SE7       29.96R
DEL RIO        CLEAR     90  60  36 SE7       29.94R
MCALLEN        CLEAR     85  65  51 E9        30.00R
HEBBRONVILLE   NOT AVBL
$$

...OTHER TEXAS OBSERVATIONS...

CITY           SKY/WX    TMP DP  RH WIND       PRES   REMARKS
BROWNSVILLE    MOCLDY    80  69  69 E5        29.99R
HOUSTON        MOCLDY    77  68  73 S3        29.97S
COL. STATION   PTCLDY    82  67  60 CALM      29.98R
AUSTIN         MOCLDY    85  58  39 SE12      29.98R
WACO           PTCLDY    85  59  41 E9        29.98R
FORT WORTH     MOCLDY    86  61  42 SE12      29.96S
WICHITA FALLS  CLOUDY    84  64  50 SE9       29.94S
LUBBOCK        MOCLDY    84  49  29 S8        30.03S
EL PASO        CLOUDY    87  55  33 SW7       30.06R
$$

...MARINE OBSERVATIONS...

STATION/POSITION TIME  SKY/WX   TEMP    WIND        PRES    VSBY  WAVE   SWELL
                                AIR SEA DIR/SP/G                  HT/PER HT/PER
                 (UTC)          (F)     (DEG/KT/KT) (MB)    (MI)  (FT/S) (FT/S)
PORT ARANSAS     0200            83 87  130/  7/  9 1016.4R
BUOY 90 E PORT A 0150            83 85   80/  6/  8 1015.5R         2/ 4   2/ 5
BUOY 45 SE BAFFI 0150            83 84   80/  8/ 10 1015.2R         2/ 6   2/ 6
BUOY 200 E PT IS 0150            85 86   40/ 10/ 14 1015.3R         2/ 5   2/ 5
BUOY 15 E GALVES 0150            84 86  130/  2/  2 1015.0R         1/ 4
$$


USA.gov is the U.S. government's official web portal to all federal, state and local government web resources and services.